TimeEST,TemperatureF,Dew PointF,Humidity,Sea Level PressureIn,VisibilityMPH,Wind Direction,Wind SpeedMPH,Gust SpeedMPH,PrecipitationIn,Events,Conditions,WindDirDegrees,DateUTC
12:53 AM,14.0,-6.0,41,30.25,10.0,WNW,17.3,26.5,N/A,,Clear,300,2013-01-25 05:53:00
1:53 AM,12.9,-7.1,41,30.26,10.0,NW,20.7,27.6,N/A,,Clear,320,2013-01-25 06:53:00
2:53 AM,12.0,-6.0,44,30.28,10.0,NW,12.7,20.7,N/A,,Clear,310,2013-01-25 07:53:00
3:53 AM,12.9,-6.0,43,30.27,10.0,NW,13.8,21.9,N/A,,Clear,310,2013-01-25 08:53:00
4:53 AM,12.9,-6.0,43,30.28,10.0,WNW,13.8,20.7,N/A,,Clear,300,2013-01-25 09:53:00
5:53 AM,12.0,-4.0,49,30.29,10.0,NW,13.8,24.2,N/A,,Clear,310,2013-01-25 10:53:00
6:53 AM,12.0,-4.0,49,30.28,10.0,NW,11.5,18.4,N/A,,Clear,310,2013-01-25 11:53:00
7:53 AM,14.0,-2.0,49,30.30,10.0,WNW,10.4,20.7,N/A,,Clear,300,2013-01-25 12:53:00
8:53 AM,16.0,1.0,52,30.31,10.0,WNW,15.0,20.7,N/A,,Clear,290,2013-01-25 13:53:00
9:53 AM,18.0,-0.9,44,30.32,10.0,West,11.5,18.4,N/A,,Clear,280,2013-01-25 14:53:00
10:53 AM,19.0,-0.0,43,30.29,10.0,NW,15.0,-,N/A,,Clear,310,2013-01-25 15:53:00
11:53 AM,19.9,-0.0,42,30.27,10.0,WNW,10.4,16.1,N/A,,Clear,300,2013-01-25 16:53:00
12:53 PM,21.9,3.0,44,30.23,10.0,West,8.1,-,N/A,,Clear,270,2013-01-25 17:53:00
1:53 PM,23.0,5.0,46,30.20,10.0,West,8.1,-,N/A,,Clear,260,2013-01-25 18:53:00
2:53 PM,24.1,5.0,44,30.18,10.0,WNW,9.2,-,N/A,,Clear,290,2013-01-25 19:53:00
3:53 PM,24.1,3.9,42,30.18,10.0,West,4.6,-,N/A,,Clear,260,2013-01-25 20:53:00
4:53 PM,24.1,7.0,48,30.17,10.0,WSW,3.5,-,N/A,,Clear,250,2013-01-25 21:53:00
5:53 PM,24.1,8.1,51,30.15,10.0,Calm,Calm,-,N/A,,Partly Cloudy,0,2013-01-25 22:53:00
6:53 PM,24.1,10.0,55,30.15,10.0,West,3.5,-,N/A,,Mostly Cloudy,260,2013-01-25 23:53:00
7:53 PM,25.0,10.9,55,30.13,10.0,Calm,Calm,-,N/A,,Overcast,0,2013-01-26 00:53:00
8:53 PM,24.1,12.9,62,30.09,10.0,NNW,3.5,-,N/A,,Overcast,330,2013-01-26 01:53:00
9:53 PM,23.0,15.1,72,30.08,3.0,NNW,10.4,-,0.00,Snow,Light Snow,340,2013-01-26 02:53:00
9:58 PM,21.2,17.6,86,30.08,1.8,NNW,10.4,-,0.00,Snow,Light Snow,330,2013-01-26 02:58:00
10:14 PM,21.2,19.4,93,30.07,2.5,NNW,5.8,-,0.00,Snow,Light Snow,340,2013-01-26 03:14:00
10:22 PM,21.2,19.4,93,30.06,3.0,North,4.6,-,0.00,Snow,Light Snow,350,2013-01-26 03:22:00
10:33 PM,21.2,19.4,93,30.06,4.0,North,6.9,-,0.00,Snow,Light Snow,350,2013-01-26 03:33:00
10:53 PM,21.0,19.0,92,30.05,4.0,NNW,5.8,-,0.00,Snow,Light Snow,340,2013-01-26 03:53:00
11:30 PM,21.2,17.6,86,30.04,2.5,North,5.8,-,0.00,Snow,Light Snow,360,2013-01-26 04:30:00
11:46 PM,21.2,17.6,86,30.03,3.0,North,5.8,-,0.00,Snow,Light Snow,10,2013-01-26 04:46:00
11:53 PM,21.0,18.0,88,30.03,3.0,North,5.8,-,0.00,Snow,Light Snow,360,2013-01-26 04:53:00